Flag for U.S.A. Weather past 2 weeks in Tallahassee, Florida, U.S.A.

Now
63 °F

Mostly cloudy.


Feels Like: 63 °F
Forecast: 54 / 74 °F
Wind: 6 mph from North

Location: Tallahassee Regional Airport

Current Time: Mar 2, 2015 at 10:24:05 AM

Latest Report: Mar 2, 2015 at 9:53 AM


Visibility: 10 mi

Pressure: 30.32 "Hg

Humidity: 81%

Dew point: 57 °F

Location of TallahasseeLocation

Historic Weather in Tallahassee — Graph

°F

Tallahassee temperature yesterday

Maximum temperature yesterday: 65 °F (at 4:53 PM)
Minimum temperature yesterday: 49 °F (at 12:53 AM)
Average temperature yesterday: 55 °F

Past Weeks' High & Low Weather Summary

 TemperatureHumidityPressure
High75 °F (Feb 22, 12:53 PM)100% (Feb 17, 4:53 AM)30.47 "Hg (Feb 17, 4:53 AM)
Low22 °F (Feb 20, 3:53 AM)16% (Feb 20, 1:53 PM)29.50 "Hg (Feb 25, 7:53 PM)
Average51 °F68%30.16 "Hg
* Reported Feb 15 8:53 AM — Mar 2 8:53 AM, Tallahassee, Weather by CustomWeather, © 2015

Note: Actual official high and low records may vary slightly from our data, if they occured in-between our weather recording intervals... More about our weather records

Advertising

Tallahassee weather history for previous 24 hours

 ConditionsComfort  
Time TempWeatherWind HumidityBarometerVisibility
8:53 AM
Mon, Mar 2
56 °FFog.No wind93%30.30 "Hg1 mi
8:01 AM54 °FFog.No wind97%30.30 "Hg0 mi
6:53 AM53 °FFog.No wind93%30.29 "Hg1 mi
5:53 AM53 °FFog.3 mph93%30.28 "Hg1 mi
4:53 AM56 °FFog.No wind93%30.29 "Hg6 mi
3:53 AM56 °FPassing clouds.No wind93%30.29 "Hg7 mi
2:53 AM58 °FLow clouds.3 mph90%30.32 "Hg8 mi
1:53 AM58 °FOvercast.No wind90%30.34 "Hg8 mi
12:53 AM58 °FOvercast.5 mph90%30.34 "Hg8 mi
11:53 PM
Sun, Mar 1
58 °FMostly cloudy.6 mph90%30.35 "Hg9 mi
10:53 PM59 °FMostly cloudy.3 mph90%30.37 "Hg7 mi
9:53 PM59 °FFog.3 mph90%30.37 "Hg6 mi
8:53 PM59 °FFog.5 mph90%30.37 "Hg3 mi
7:53 PM60 °FFog.3 mph93%30.35 "Hg2 mi
6:53 PM62 °FOvercast.6 mph83%30.33 "Hg3 mi
5:53 PM64 °FOvercast.5 mph78%30.32 "Hg7 mi
4:53 PM65 °FOvercast.5 mph73%30.30 "Hg10 mi
3:53 PM64 °FOvercast.No wind73%30.31 "Hg10 mi
2:53 PM62 °FOvercast.3 mph73%30.31 "Hg10 mi
1:53 PM59 °FOvercast.5 mph78%30.34 "Hg10 mi
12:53 PM56 °FLow clouds.5 mph81%30.38 "Hg10 mi
11:53 AM54 °FFog.8 mph83%30.42 "Hg5 mi
10:53 AM53 °FFog.7 mph86%30.42 "Hg5 mi
Weather by CustomWeather, © 2015

See weather overviewHow to use our weather pages